Wind_Speed
16 16 16 16 17 17 17 18 18 18 18 18 18 18 18 18 17 17 17 17 17 17 18 18 19 20 21 22 22 23 23 23 23 24 26 27 27 28 28 28 28 28 28
17 17 17 18 18 18 18 19 19 18 19 19 19 19 19 18 18 18 18 17 17 18 19 19 20 21 21 22 23 24 24 25 25 25 26 27 27 27 28 28 28 28 29
18 18 19 19 19 18 19 19 19 19 19 20 20 20 20 20 19 19 18 19 19 19 19 20 21 22 23 23 24 24 25 26 26 27 27 28 28 28 28 29 29 29 30
18 19 20 20 20 19 19 20 20 20 20 21 21 21 21 20 20 20 20 20 20 21 21 21 22 22 23 23 24 24 26 27 28 28 28 29 29 29 29 30 30 31 31
20 21 21 22 21 20 20 20 20 20 20 21 20 20 21 21 21 21 21 21 22 23 23 23 24 24 25 25 25 26 26 27 28 28 29 29 30 30 30 31 31 31 31
21 22 22 22 22 22 21 21 20 20 20 21 21 21 22 22 21 22 22 23 23 24 25 25 26 26 26 26 27 27 28 28 29 29 29 30 29 30 31 31 31 30 30
21 21 21 22 22 22 22 22 21 21 22 22 22 22 22 22 22 23 24 25 25 25 26 26 26 26 27 27 27 28 28 28 29 29 29 29 29 30 31 31 32 31 30
23 22 21 22 22 23 23 23 23 23 23 23 23 23 23 23 24 24 25 25 25 26 25 25 26 27 27 27 28 29 29 29 29 29 29 29 29 29 30 29 30 30 30
23 23 23 23 23 24 24 24 24 24 24 25 25 24 24 24 25 25 25 26 26 26 26 26 26 27 27 27 28 28 28 28 29 29 28 28 29 29 29 28 29 29 29
24 24 24 24 24 25 25 25 25 25 25 25 25 25 25 25 25 26 26 26 26 26 26 26 26 26 26 27 27 27 27 28 28 28 27 27 28 28 29 29 28 29 29
24 24 25 25 25 25 25 25 25 25 26 26 26 26 26 25 25 26 26 26 27 27 27 27 27 27 27 27 27 27 27 27 27 27 27 27 27 27 27 28 28 27 27
24 24 25 25 26 26 26 26 27 27 27 27 26 26 26 26 26 26 27 27 27 27 27 28 28 28 28 28 28 28 27 26 26 26 26 26 26 25 25 25 26 26 26
25 26 26 26 27 27 27 27 28 28 28 27 27 27 27 26 26 26 27 27 27 27 28 28 28 28 29 28 28 28 27 26 25 24 24 24 24 23 23 23 23 23 23
27 27 27 27 27 27 27 27 28 28 27 27 26 26 26 26 26 27 27 27 27 27 28 28 28 28 28 28 27 27 26 24 23 23 22 22 21 21 22 22 21 21 22
27 26 26 26 27 27 27 27 27 27 26 26 25 25 26 25 26 26 26 27 27 27 27 27 27 28 28 28 26 25 24 23 23 22 22 22 22 22 22 22 22 22 22
26 26 26 26 26 27 28 28 28 27 27 27 26 25 25 26 26 26 26 27 27 27 27 26 26 26 27 27 26 25 24 23 23 23 23 23 23 23 22 22 22 22 21
27 27 27 27 27 27 27 28 28 27 27 27 27 26 26 26 27 27 27 26 27 27 27 27 27 27 27 26 26 25 25 24 23 23 23 23 24 24 24 23 23 23 22
27 27 27 27 27 27 27 28 28 27 27 27 26 26 27 27 26 26 26 26 27 27 27 27 27 27 26 26 25 24 24 23 22 22 22 23 23 24 23 23 23 23 22
26 27 26 27 27 28 28 28 27 27 26 26 25 26 26 26 26 26 26 26 26 26 26 25 25 25 25 25 24 23 22 22 22 22 22 22 23 22 22 22 22 22 21
27 27 27 27 27 27 27 27 27 26 26 25 25 25 26 26 26 25 26 26 26 25 25 24 24 24 24 24 22 22 21 22 22 22 23 23 23 22 22 21 21 21 20
26 26 26 27 27 27 27 26 26 26 26 25 26 26 25 25 25 24 25 25 25 24 24 23 23 24 24 23 22 21 21 21 22 22 22 22 22 21 20 20 20 20 20
26 26 27 27 27 27 27 27 27 26 25 26 26 26 26 25 25 24 24 23 24 24 24 24 23 23 23 22 22 22 22 22 22 22 21 21 21 20 20 20 20 20 20
27 26 27 26 26 26 26 26 26 25 26 26 25 25 25 25 24 24 23 24 24 24 24 23 23 23 23 22 22 22 22 22 22 22 21 21 21 20 20 20 19 19 18
28 27 27 27 26 25 25 25 25 26 26 25 25 25 25 24 24 24 24 25 24 24 24 24 23 23 23 22 22 22 22 22 22 22 21 21 20 19 19 19 18 17 17
28 27 26 26 26 26 26 26 26 26 25 25 24 24 24 24 25 25 25 25 25 25 24 24 24 24 23 23 23 22 22 22 22 21 21 20 19 19 18 17 17 17 17
28 27 26 26 27 27 27 26 26 26 26 25 24 24 24 25 26 25 25 26 26 25 25 25 24 24 23 23 23 23 22 22 22 21 21 20 19 18 17 17 17 17 17
Wind_Direction
316 315 314 312 310 309 309 309 311 312 312 311 311 310 309 306 305 304 302 299 296 293 291 289 286 285 285 282 280 278 275 274 273 272 271 270 269 269 269 269 268 268 268
313 312 311 308 306 305 305 307 307 307 309 309 308 307 305 303 302 300 299 300 298 296 293 291 290 289 288 284 281 280 279 278 277 275 274 273 271 270 270 270 270 269 269
310 310 311 308 304 302 303 305 304 304 306 309 308 305 304 303 301 300 299 299 297 296 294 292 291 291 290 286 283 281 281 281 280 279 276 275 274 272 270 269 270 271 270
310 309 308 309 306 306 306 306 303 302 305 307 308 307 305 304 303 302 300 298 298 297 295 293 292 292 293 289 286 285 284 282 282 282 279 276 274 273 271 270 270 270 270
310 311 310 309 306 308 309 307 305 305 306 307 309 310 309 306 304 303 302 298 297 297 295 293 291 292 292 291 289 288 286 285 284 283 282 280 276 274 273 273 271 269 269
310 310 311 312 310 310 312 308 304 305 306 307 307 308 307 306 304 303 302 301 298 296 295 293 291 291 292 292 291 289 288 288 287 286 284 281 279 277 276 274 272 270 268
308 309 311 311 312 313 312 310 307 304 304 304 303 303 304 303 302 302 302 301 300 299 298 296 294 293 292 292 292 292 292 292 291 288 285 283 280 280 279 276 276 272 270
307 307 308 309 311 312 312 309 307 305 303 302 302 302 302 301 301 301 301 301 300 299 300 298 297 295 294 293 292 293 293 293 293 290 287 285 282 281 282 279 276 275 272
306 307 307 308 310 309 309 308 307 306 305 304 306 305 304 304 303 302 301 301 301 300 298 298 299 298 297 295 295 294 293 293 293 291 289 286 284 283 282 279 275 274 272
304 305 305 306 308 308 307 305 305 305 305 305 304 306 306 305 304 303 302 301 300 300 299 299 300 301 300 299 298 297 295 295 294 292 290 288 286 284 282 279 277 274 272
303 304 305 306 307 308 306 304 303 303 303 303 304 304 305 304 303 303 303 302 301 300 300 300 301 302 301 300 300 298 297 297 296 294 291 289 288 286 284 281 277 276 274
303 304 304 305 306 306 305 304 303 303 303 303 303 303 303 303 303 304 304 303 303 301 300 301 302 302 301 300 300 299 298 297 297 296 293 290 289 288 286 283 280 276 273
303 304 305 305 306 306 306 305 305 306 304 303 302 302 301 301 302 303 304 303 302 301 302 301 301 301 302 301 301 300 298 297 297 296 295 292 289 288 287 284 281 278 273
300 301 302 304 306 306 306 306 306 306 305 304 302 301 301 302 303 304 304 304 302 301 302 303 303 303 303 303 302 300 299 298 296 295 293 292 291 290 289 288 284 280 275
300 301 302 304 307 307 308 308 306 305 304 303 302 302 302 302 303 305 306 306 304 304 303 304 305 305 304 304 302 300 299 296 293 292 292 291 292 293 292 289 284 280 276
300 301 303 305 307 308 309 309 307 305 303 301 301 300 301 302 303 305 306 306 305 305 306 306 307 307 306 304 302 301 299 297 295 294 292 291 289 290 290 287 286 283 278
301 301 303 305 307 308 309 309 308 307 305 302 301 301 302 301 301 303 304 305 305 306 306 306 306 306 306 306 305 302 299 297 296 295 293 292 290 289 289 288 286 283 278
300 302 303 305 307 308 309 310 310 308 305 303 302 302 302 302 303 304 304 305 307 307 307 306 306 306 305 305 305 303 300 298 296 295 294 293 292 290 289 288 286 285 280
300 301 303 305 307 307 308 309 310 309 307 305 304 303 304 303 303 304 306 307 307 307 307 306 306 306 307 306 305 304 303 300 297 296 296 296 296 294 291 288 286 284 280
301 301 302 303 306 308 308 309 309 309 308 306 306 306 305 305 305 305 306 308 307 307 307 307 308 310 309 308 306 306 305 302 300 297 296 297 297 296 292 288 287 283 279
299 299 300 301 304 305 305 306 308 308 307 307 307 307 307 306 305 306 307 308 309 310 309 309 309 310 310 309 306 306 305 305 303 300 299 297 297 295 293 289 286 283 279
296 297 299 301 303 303 303 304 305 305 306 306 306 306 308 308 306 307 308 310 311 312 312 311 309 310 311 309 307 305 305 305 304 303 301 300 297 293 290 287 285 284 281
296 297 300 301 302 301 302 304 305 304 304 304 305 306 307 308 308 307 308 309 311 312 312 311 310 310 310 309 307 306 305 305 305 304 303 302 299 295 290 286 284 283 279
298 299 300 299 299 299 300 302 303 304 304 304 306 306 307 308 308 308 308 309 310 310 309 309 309 309 309 307 305 304 304 304 305 305 304 303 301 297 291 284 280 276 274
296 298 298 298 298 298 299 300 303 305 305 305 306 306 307 308 308 308 308 308 308 307 308 308 308 308 308 307 305 303 303 303 303 305 306 305 303 299 294 287 281 277 275
293 295 297 297 298 298 299 300 302 304 306 306 306 305 306 307 309 308 307 307 306 306 306 307 307 308 307 307 306 303 303 303 302 302 303 304 302 300 297 292 286 281 278
Height
5856 5854 5852 5850 5848 5846 5844 5842 5840 5837 5835 5833 5830 5828 5826 5824 5822 5820 5818 5816 5814 5813 5812 5810 5809 5808 5807 5806 5805 5805 5804 5804 5803 5802 5801 5801 5800 5800 5799 5799 5799 5798 5798
5853 5850 5848 5846 5844 5841 5839 5837 5835 5833 5831 5829 5826 5824 5822 5820 5818 5816 5814 5812 5810 5808 5807 5805 5804 5803 5801 5800 5799 5798 5797 5796 5796 5795 5794 5792 5792 5791 5791 5790 5790 5790 5789
5849 5847 5844 5842 5839 5836 5834 5832 5830 5828 5826 5824 5822 5820 5817 5815 5813 5811 5809 5807 5805 5803 5801 5800 5798 5797 5795 5794 5793 5791 5790 5789 5788 5787 5786 5785 5783 5783 5782 5782 5781 5781 5780
5845 5843 5840 5837 5835 5833 5830 5828 5825 5823 5821 5819 5817 5815 5812 5810 5808 5806 5804 5802 5800 5798 5796 5794 5793 5791 5789 5787 5786 5784 5783 5782 5780 5779 5778 5776 5775 5774 5774 5773 5772 5772 5771
5841 5838 5836 5833 5830 5828 5825 5823 5820 5818 5816 5814 5812 5810 5807 5805 5803 5801 5799 5797 5795 5792 5791 5789 5787 5785 5783 5781 5779 5777 5775 5774 5772 5771 5769 5768 5767 5765 5765 5764 5763 5762 5762
5837 5834 5831 5829 5826 5823 5820 5818 5815 5813 5811 5809 5807 5804 5802 5800 5798 5795 5793 5791 5788 5786 5784 5782 5780 5778 5776 5774 5772 5770 5768 5766 5764 5762 5761 5759 5758 5756 5755 5754 5753 5753 5753
5832 5829 5827 5824 5821 5818 5816 5813 5811 5808 5806 5804 5801 5799 5797 5794 5792 5789 5787 5785 5782 5780 5777 5775 5773 5771 5768 5766 5764 5762 5759 5757 5755 5753 5752 5750 5748 5747 5746 5745 5744 5744 5744
5827 5825 5822 5820 5817 5814 5811 5808 5806 5803 5801 5798 5796 5793 5790 5788 5786 5783 5781 5778 5776 5773 5771 5768 5766 5763 5761 5758 5756 5754 5751 5749 5746 5744 5742 5741 5739 5738 5737 5736 5735 5735 5734
5822 5820 5817 5814 5811 5808 5806 5803 5800 5798 5795 5792 5790 5787 5784 5782 5779 5777 5774 5772 5769 5766 5764 5761 5758 5756 5753 5751 5749 5746 5743 5740 5738 5735 5733 5731 5729 5728 5727 5726 5725 5725 5725
5817 5814 5811 5808 5806 5803 5800 5797 5794 5792 5789 5786 5784 5781 5778 5775 5773 5770 5767 5765 5762 5759 5756 5754 5751 5748 5746 5743 5740 5738 5735 5732 5729 5727 5724 5722 5720 5719 5717 5717 5716 5716 5715
5811 5808 5806 5803 5800 5797 5794 5791 5788 5785 5783 5780 5778 5775 5772 5769 5766 5763 5761 5758 5755 5752 5749 5746 5744 5741 5738 5735 5732 5730 5727 5724 5721 5718 5716 5713 5712 5710 5709 5708 5707 5706 5706
5805 5803 5800 5797 5794 5791 5788 5784 5781 5779 5776 5773 5770 5768 5765 5762 5759 5756 5753 5750 5748 5745 5742 5739 5736 5733 5730 5727 5724 5721 5718 5715 5712 5710 5707 5705 5703 5702 5700 5699 5698 5697 5697
5799 5796 5793 5790 5787 5784 5781 5778 5775 5772 5768 5766 5763 5761 5758 5755 5752 5749 5746 5743 5740 5737 5735 5732 5728 5725 5722 5719 5715 5712 5709 5707 5704 5702 5699 5697 5695 5694 5692 5691 5690 5689 5689
5792 5789 5786 5784 5781 5777 5774 5771 5768 5764 5761 5758 5756 5753 5751 5748 5745 5742 5739 5736 5733 5730 5727 5724 5720 5717 5714 5711 5707 5704 5701 5699 5696 5694 5692 5690 5688 5686 5685 5683 5682 5682 5681
5785 5782 5779 5777 5774 5770 5767 5764 5761 5757 5754 5752 5749 5746 5744 5741 5738 5735 5732 5729 5725 5722 5719 5716 5713 5709 5706 5703 5699 5696 5694 5691 5689 5687 5685 5683 5682 5680 5678 5676 5675 5674 5673
5778 5776 5773 5770 5767 5763 5760 5757 5753 5750 5747 5745 5742 5739 5737 5734 5731 5728 5725 5721 5718 5715 5712 5709 5705 5702 5699 5695 5692 5689 5687 5684 5682 5680 5678 5676 5674 5672 5670 5669 5668 5666 5666
5771 5769 5766 5763 5760 5757 5753 5750 5747 5744 5740 5737 5735 5732 5730 5727 5724 5720 5717 5714 5711 5708 5705 5701 5698 5695 5691 5688 5685 5682 5679 5677 5675 5672 5670 5668 5666 5665 5663 5661 5660 5659 5658
5764 5762 5759 5756 5753 5749 5746 5743 5740 5736 5734 5730 5728 5725 5722 5719 5716 5713 5710 5706 5704 5700 5697 5694 5690 5687 5684 5681 5678 5675 5672 5669 5667 5665 5663 5660 5658 5657 5655 5653 5652 5651 5650
5757 5755 5752 5749 5746 5743 5739 5736 5733 5730 5727 5724 5721 5718 5715 5712 5709 5705 5702 5699 5696 5693 5690 5687 5683 5680 5677 5674 5671 5668 5665 5663 5660 5658 5656 5653 5651 5649 5647 5645 5644 5643 5642
5750 5748 5745 5742 5739 5736 5733 5729 5726 5723 5720 5717 5714 5711 5708 5705 5702 5699 5695 5692 5689 5686 5683 5680 5677 5673 5670 5667 5664 5661 5659 5656 5653 5651 5649 5646 5644 5642 5639 5638 5636 5635 5635
5743 5740 5738 5735 5732 5729 5726 5723 5719 5717 5713 5710 5708 5704 5701 5698 5695 5692 5689 5686 5682 5679 5676 5673 5670 5667 5664 5661 5658 5655 5652 5650 5647 5644 5642 5640 5637 5635 5633 5631 5630 5629 5628
5735 5733 5730 5728 5725 5722 5719 5716 5713 5710 5707 5704 5701 5698 5694 5691 5688 5685 5682 5679 5676 5673 5670 5667 5664 5661 5657 5654 5651 5649 5646 5644 5641 5638 5635 5633 5630 5628 5626 5624 5623 5622 5621
5728 5726 5723 5720 5718 5715 5712 5709 5706 5703 5700 5697 5694 5691 5688 5684 5681 5679 5676 5673 5670 5667 5663 5660 5657 5654 5651 5648 5645 5642 5640 5637 5634 5631 5628 5626 5623 5621 5619 5618 5617 5615 5614
5720 5718 5716 5713 5710 5707 5705 5702 5699 5696 5693 5690 5687 5684 5681 5678 5675 5672 5669 5666 5663 5660 5657 5654 5651 5648 5645 5641 5638 5636 5633 5630 5627 5625 5622 5619 5616 5614 5612 5611 5610 5609 5609
5713 5710 5708 5705 5703 5700 5698 5695 5693 5690 5687 5683 5680 5677 5674 5671 5668 5665 5662 5660 5657 5653 5650 5647 5644 5641 5638 5635 5632 5629 5627 5624 5621 5618 5616 5613 5610 5608 5606 5605 5604 5603 5603
5705 5703 5700 5698 5696 5693 5690 5688 5685 5683 5680 5677 5674 5671 5668 5665 5661 5658 5655 5653 5650 5647 5643 5640 5637 5634 5631 5628 5625 5623 5620 5618 5615 5612 5610 5607 5604 5602 5600 5599 5598 5597 5597